FW0321 Weather Reports


time (UTC)temp
F
wind
direction
speed
knots
gust
knots
rain 1hr
in
rain 24hr
in
rain mn
in
humidity
%
barometer
mb
20260507140557 41 248 10.4 19.1 0.00 0.12 0.02 82 1017.3
20260507135657 42 249 9.6 19.1 0.00 0.12 0.02 82 1017.1
20260507133857 43 248 8.7 15.6 0.00 0.12 0.02 79 1016.9
20260507132957 44 244 8.7 13.0 0.00 0.12 0.02 79 1016.8
20260507132057 43 246 7.8 13.9 0.00 0.12 0.02 78 1016.8
20260507131157 43 242 7.0 10.4 0.00 0.12 0.02 80 1016.8
20260507130257 42 244 8.7 13.0 0.00 0.12 0.02 81 1016.7
20260507124457 43 244 7.0 11.3 0.00 0.12 0.02 79 1016.8
20260507123556 43 244 7.0 12.2 0.00 0.12 0.02 79 1016.9
20260507121757 41 245 7.8 14.8 0.00 0.12 0.02 82 1016.7
20260507115056 41 250 8.7 16.5 0.00 0.12 0.02 85 1016.6
20260507114157 40 249 8.7 15.6 0.00 0.12 0.02 86 1016.5
20260507113256 40 248 7.8 14.8 0.00 0.12 0.02 87 1016.4
20260507112356 40 257 4.3 8.7 0.00 0.12 0.02 87 1016.4
20260507111456 39 250 7.8 15.6 0.00 0.12 0.02 86 1016.2
20260507110556 40 248 10.4 17.4 0.00 0.12 0.02 85 1016.0
20260507105656 41 251 9.6 16.5 0.00 0.12 0.02 84 1015.8
20260507104756 41 256 9.6 15.6 0.00 0.12 0.02 83 1015.8
20260507103856 41 246 7.8 13.0 0.00 0.12 0.02 83 1015.7
20260507102957 41 245 6.1 10.4 0.00 0.12 0.02 82 1015.6
20260507102056 41 246 7.0 12.2 0.00 0.12 0.02 82 1015.6
20260507095356 41 247 9.6 15.6 0.00 0.12 0.02 83 1015.5
20260507094456 41 247 7.8 13.9 0.00 0.12 0.02 83 1015.4
20260507093556 41 246 7.8 14.8 0.00 0.12 0.02 82 1015.2
20260507092656 41 250 7.8 12.2 0.00 0.12 0.02 82 1015.2
20260507090856 42 245 7.0 13.0 0.00 0.12 0.02 81 1015.0
20260507085956 42 250 7.0 10.4 0.00 0.12 0.02 80 1014.9
20260507085056 41 252 6.1 10.4 0.00 0.12 0.02 80 1014.9
20260507084156 42 248 5.2 9.6 0.00 0.12 0.02 81 1014.8
20260507083256 41 245 6.1 10.4 0.00 0.12 0.02 84 1014.7
20260507082356 40 254 8.7 13.0 0.00 0.12 0.02 83 1014.6
20260507081458 40 253 7.8 15.6 0.00 0.12 0.02 84 1014.6
20260507080556 40 245 5.2 12.2 0.00 0.12 0.02 83 1014.6
20260507075656 41 236 2.6 6.1 0.00 0.12 0.02 79 1014.5
20260507074756 42 218 1.7 4.3 0.00 0.12 0.02 79 1014.5
20260507073856 42 229 0.9 4.3 0.00 0.12 0.02 80 1014.4
20260507072957 42 221 1.7 4.3 0.00 0.12 0.02 81 1014.4
20260507072056 42 235 1.7 4.3 0.00 0.12 0.02 83 1014.2
20260507071156 41 253 0.9 3.5 0.00 0.12 0.02 85 1014.2
20260507070256 40 270 0.0 2.6 0.00 0.12 0.02 86 1014.1
20260507064457 39 280 0.0 2.6 0.00 0.12 0.02 88 1013.8
20260507063556 39 293 0.9 2.6 0.00 0.12 0.02 88 1013.9
20260507062657 39 314 0.0 1.7 0.00 0.12 0.02 89 1013.8
20260507061756 39 314 0.0 0.9 0.00 0.12 0.02 89 1013.8
20260507060856 39 313 0.9 2.6 0.00 0.12 0.02 89 1013.7
20260507055056 39 310 1.7 3.5 0.00 0.12 0.02 90 1013.7
20260507054157 38 293 0.9 4.3 0.00 0.12 0.02 90 1013.6
20260507052356 38 73 0.9 1.7 0.00 0.12 0.02 91 1013.4
20260507051456 38 74 0.9 1.7 0.00 0.12 0.02 91 1013.4
20260507050556 38 73 1.7 3.5 0.00 0.12 0.02 92 1013.3
20260507045656 38 73 0.9 4.3 0.00 0.12 0.02 92 1013.3
20260507044756 37 72 0.9 2.6 0.00 0.12 0.02 93 1013.4
20260507042956 37 72 1.7 3.5 0.00 0.12 0.02 93 1013.3
20260507042056 37 73 1.7 3.5 0.00 0.12 0.02 93 1013.1
20260507040255 37 74 0.9 2.6 0.00 0.12 0.02 93 1013.0
20260507035355 37 74 0.9 2.6 0.00 0.12 0.02 94 1012.9
20260507034456 36 73 1.7 2.6 0.00 0.12 0.02 94 1012.8
20260507033555 36 73 1.7 2.6 0.00 0.12 0.02 94 1012.9
20260507032655 36 73 1.7 2.6 0.00 0.12 0.02 94 1012.8
20260507031756 36 74 0.9 2.6 0.00 0.12 0.02 94 1012.7
20260507030855 36 73 1.7 2.6 0.00 0.12 0.02 94 1012.7
20260507025955 36 73 1.7 3.5 0.00 0.12 0.02 94 1012.6
20260507025055 35 74 2.6 4.3 0.00 0.12 0.02 94 1012.6
20260507024155 35 76 1.7 2.6 0.00 0.12 0.02 94 1012.6
20260507023255 35 76 0.9 2.6 0.00 0.12 0.02 94 1012.7
20260507022355 36 76 1.7 3.5 0.00 0.12 0.02 94 1012.6
20260507021455 36 69 1.7 4.3 0.00 0.12 0.02 94 1012.5
20260507020555 35 64 0.9 2.6 0.00 0.12 0.02 94 1012.5
20260507015655 35 76 0.9 1.7 0.00 0.12 0.02 94 1012.5
20260507014755 35 76 0.9 2.6 0.00 0.12 0.02 94 1012.5
20260507013855 36 73 1.7 3.5 0.00 0.12 0.02 94 1012.4
20260507012955 36 70 0.0 1.7 0.00 0.12 0.02 94 1012.5
20260507010255 35 74 0.0 3.5 0.00 0.12 0.02 94 1012.4
20260507005355 35 0 0.0 0.0 0.00 0.12 0.02 93 1012.4
20260507004455 35 72 0.0 3.5 0.00 0.12 0.02 93 1012.3
20260507003555 35 59 0.9 3.5 0.00 0.12 0.02 93 1012.3
20260507002655 36 41 0.0 1.7 0.00 0.12 0.02 93 1012.3
20260507001755 35 0 0.0 0.0 0.00 0.12 0.02 93 1012.2
20260507000855 35 0 0.0 0.0 0.00 0.12 0.02 93 1012.3
20260506235955 35 36 0.0 0.9 0.00 0.12 0.02 93 1012.2
20260506235055 35 35 0.0 1.7 0.00 0.12 0.02 93 1012.0
20260506234155 35 35 0.9 2.6 0.00 0.12 0.02 93 1011.9
20260506232355 36 315 0.9 2.6 0.01 0.12 0.02 92 1012.0
20260506230555 36 310 0.0 0.9 0.02 0.12 0.02 92 1011.9
20260506225655 36 311 0.9 1.7 0.02 0.12 0.02 92 1012.0
20260506224755 36 310 0.0 1.7 0.02 0.12 0.02 92 1011.9
20260506223855 36 0 0.0 0.0 0.02 0.12 0.02 92 1011.8
20260506222055 36 300 1.7 6.1 0.02 0.11 0.02 91 1011.7
20260506221156 37 285 2.6 7.0 0.02 0.11 0.02 91 1011.9
20260506220255 37 207 1.7 7.0 0.01 0.09 0.00 92 1011.9
20260506215356 37 207 1.7 5.2 0.01 0.09 0.32 92 1011.7
20260506214455 37 213 0.9 5.2 0.02 0.09 0.32 92 1011.6
20260506213555 37 219 0.0 1.7 0.02 0.09 0.32 92 1011.5
20260506212655 37 219 0.0 1.7 0.02 0.09 0.32 91 1011.4
20260506211755 37 218 0.9 4.3 0.01 0.09 0.32 91 1011.4
20260506210855 37 222 0.9 3.5 0.01 0.09 0.31 91 1011.5
20260506205056 37 273 1.7 5.2 0.01 0.09 0.31 92 1011.4
20260506204155 37 240 0.9 4.3 0.00 0.08 0.31 92 1011.3
20260506203255 37 281 0.9 2.6 0.01 0.08 0.31 91 1011.1
20260506202354 37 280 0.9 2.6 0.01 0.08 0.31 91 1011.1
20260506201455 37 278 0.9 2.6 0.01 0.08 0.31 92 1011.1
20260506200555 38 271 0.9 6.1 0.01 0.08 0.31 92 1011.1
20260506195655 38 241 0.9 5.2 0.01 0.08 0.31 92 1011.0
20260506194756 38 205 1.7 7.0 0.01 0.08 0.31 92 1011.0
20260506193855 38 210 0.0 2.6 0.00 0.07 0.31 92 1011.0
20260506192955 38 194 0.0 2.6 0.00 0.07 0.30 92 1010.9
20260506192055 38 193 0.9 5.2 0.00 0.07 0.30 92 1010.9
20260506191156 38 170 0.9 6.1 0.00 0.07 0.30 92 1010.9
20260506190255 38 55 0.9 3.5 0.00 0.07 0.30 92 1010.8
20260506184454 38 65 1.7 3.5 0.01 0.07 0.30 92 1010.6
20260506183554 38 66 0.9 2.6 0.01 0.07 0.30 92 1010.5
20260506182654 38 65 0.9 1.7 0.01 0.07 0.30 91 1010.5
20260506181754 38 65 0.9 3.5 0.01 0.07 0.30 91 1010.5
20260506180854 38 63 0.9 3.5 0.01 0.07 0.30 91 1010.4
20260506175954 38 62 0.9 2.6 0.02 0.07 0.30 91 1010.4
20260506174154 38 60 0.9 2.6 0.01 0.06 0.29 91 1010.3
20260506172354 38 55 1.7 3.5 0.02 0.06 0.29 90 1010.3
20260506171454 38 56 0.9 2.6 0.03 0.06 0.29 90 1010.1
20260506170554 38 51 0.9 2.6 0.04 0.06 0.29 89 1010.0
20260506165654 38 12 0.9 3.5 0.04 0.06 0.28 89 1009.9
20260506164754 38 323 0.9 2.6 0.05 0.06 0.28 89 1010.0
20260506163856 38 320 0.9 1.7 0.06 0.06 0.28 88 1010.0
20260506162954 38 319 0.0 1.7 0.06 0.06 0.28 88 1010.0
20260506161156 37 318 1.7 3.5 0.02 0.02 0.25 85 1010.1
20260506160254 38 324 3.5 7.8 0.02 0.02 0.25 83 1010.0
20260506155354 39 324 2.6 6.1 0.01 0.01 0.24 81 1009.9
20260506154454 40 353 1.7 3.5 0.01 0.01 0.24 81 1009.9
20260506153556 40 339 2.6 7.8 0.00 0.00 0.23 80 1009.7
20260506152655 40 288 2.6 7.8 0.00 0.00 0.23 79 1009.9
20260506151754 40 286 2.6 5.2 0.00 0.00 0.23 79 1009.8
20260506150854 40 304 2.6 6.1 0.00 0.00 0.23 79 1009.7
20260506145955 41 286 4.3 9.6 0.00 0.00 0.23 78 1009.7
20260506145054 42 281 5.2 11.3 0.00 0.00 0.23 76 1009.6
20260506144154 43 272 3.5 11.3 0.00 0.00 0.23 76 1009.6
20260506143254 43 268 3.5 7.8 0.00 0.00 0.23 76 1009.6
20260506142355 43 270 3.5 7.8 0.00 0.00 0.23 75 1009.5